CW7241 Weather Reports


Display with metric or nautical units.
time (UTC)temp
F
wind
direction
speed
MPH
gust
MPH
rain 1hr
in
rain 24hr
in
rain mn
in
humidity
%
barometer
mb
20260503050105 33 336 0.0 0.0 0.00 0.01 0.00 92 1016.7
20260503045605 33 336 0.0 0.0 0.00 0.01 0.00 92 1016.8
20260503045105 33 336 0.0 0.0 0.00 0.01 0.00 92 1016.9
20260503044605 33 336 0.0 0.0 0.00 0.01 0.00 91 1016.8
20260503044105 33 336 0.0 0.0 0.00 0.01 0.00 91 1016.8
20260503043606 33 336 0.0 0.0 0.00 0.01 0.00 91 1016.8
20260503043105 33 336 0.0 0.0 0.00 0.01 0.00 90 1016.7
20260503042605 34 336 0.0 0.0 0.00 0.01 0.00 90 1016.7
20260503042106 34 336 0.0 0.0 0.00 0.01 0.00 90 1016.7
20260503041605 34 336 0.0 0.0 0.00 0.01 0.00 90 1016.7
20260503041108 34 336 0.0 0.0 0.00 0.01 0.00 89 1016.7
20260503040608 34 336 0.0 0.0 0.00 0.01 0.00 89 1016.7
20260503040105 34 336 0.0 0.0 0.00 0.01 0.00 89 1016.8
20260503035605 34 336 0.0 0.0 0.00 0.01 0.00 89 1016.9
20260503035105 34 336 0.0 0.0 0.00 0.01 0.00 88 1016.9
20260503034605 34 336 0.0 0.0 0.00 0.01 0.00 88 1016.9
20260503034105 34 336 0.0 0.0 0.00 0.01 0.00 87 1016.9
20260503033608 34 336 0.0 0.0 0.00 0.01 0.00 87 1017.0
20260503033108 35 336 0.0 0.0 0.00 0.01 0.00 86 1016.9
20260503032605 35 336 0.0 0.0 0.00 0.01 0.00 86 1017.0
20260503032105 35 336 0.0 0.0 0.00 0.01 0.00 85 1017.1
20260503031608 35 336 0.0 0.0 0.00 0.01 0.00 84 1017.0
20260503031107 36 336 0.0 0.0 0.00 0.01 0.00 84 1017.0
20260503030606 36 336 0.0 0.0 0.00 0.01 0.00 83 1017.1
20260503030105 36 336 0.0 0.0 0.00 0.01 0.00 82 1017.0
20260503025605 36 336 0.0 0.0 0.00 0.01 0.00 82 1017.1
20260503025106 37 336 0.0 0.0 0.00 0.01 0.00 80 1017.1
20260503024608 37 336 0.0 0.0 0.00 0.01 0.00 80 1017.1
20260503024106 37 336 0.0 0.0 0.00 0.01 0.00 79 1017.1
20260503023606 38 336 0.0 0.0 0.00 0.01 0.00 78 1017.0
20260503023105 38 336 0.0 0.0 0.00 0.01 0.00 78 1017.0
20260503022609 38 336 0.0 0.0 0.00 0.01 0.00 77 1017.0
20260503022105 39 336 0.0 0.0 0.00 0.01 0.00 76 1016.9
20260503021605 39 336 0.0 0.0 0.00 0.01 0.00 76 1016.9
20260503021105 39 336 0.0 0.0 0.00 0.01 0.00 76 1016.9
20260503020606 40 336 0.0 0.0 0.00 0.01 0.00 75 1016.8
20260503020105 40 336 0.0 0.0 0.00 0.01 0.00 74 1016.9
20260503015609 40 336 0.0 0.0 0.00 0.01 0.00 74 1016.8
20260503015106 40 336 0.0 0.0 0.00 0.01 0.00 74 1016.8
20260503014606 40 336 0.0 0.0 0.00 0.01 0.00 73 1016.7
20260503014110 41 336 0.0 0.0 0.00 0.02 0.00 73 1016.6
20260503013605 41 336 0.0 0.0 0.00 0.02 0.00 72 1016.6
20260503013105 41 336 0.0 0.0 0.00 0.02 0.00 72 1016.6
20260503012606 41 336 0.0 0.0 0.00 0.02 0.00 71 1016.6
20260503012106 41 336 0.0 0.0 0.00 0.02 0.00 70 1016.6
20260503011605 41 336 0.0 0.0 0.00 0.02 0.00 69 1016.5
20260503011105 41 336 0.0 0.0 0.00 0.02 0.00 68 1016.5
20260503010605 42 336 0.0 0.0 0.00 0.02 0.00 67 1016.5
20260503010106 42 336 0.0 0.0 0.00 0.02 0.00 66 1016.7
20260503005606 42 336 0.0 0.0 0.00 0.02 0.00 66 1016.7
20260503005106 42 336 0.0 0.0 0.00 0.02 0.00 65 1016.6
20260503004605 42 336 0.0 2.0 0.00 0.02 0.00 65 1016.6
20260503004105 42 336 0.0 0.0 0.00 0.02 0.00 64 1016.6
20260503003605 42 336 0.0 0.0 0.00 0.02 0.00 63 1016.6
20260503003108 42 336 0.0 0.0 0.00 0.03 0.00 62 1016.6
20260503002605 42 336 0.0 0.0 0.00 0.03 0.00 61 1016.5
20260503002106 42 336 0.0 0.0 0.00 0.03 0.00 60 1016.6
20260503001606 43 336 0.0 2.0 0.00 0.03 0.00 59 1016.3
20260503001108 43 336 0.0 3.0 0.00 0.03 0.00 59 1016.3
20260503000613 43 336 0.0 4.0 0.00 0.03 0.00 59 1016.3
20260503000105 43 336 0.0 2.0 0.00 0.03 0.00 59 1016.4
20260502235605 43 336 2.0 4.0 0.00 0.03 0.00 58 1016.3
20260502235106 43 340 2.0 5.0 0.00 0.03 0.00 57 1016.3
20260502234605 43 294 1.0 2.0 0.00 0.03 0.00 57 1016.4
20260502234105 43 294 0.0 5.0 0.00 0.03 0.00 57 1016.3
20260502233606 43 22 0.0 6.0 0.00 0.03 0.00 57 1016.3
20260502233105 43 255 0.0 5.0 0.00 0.03 0.00 57 1016.2
20260502232608 43 313 0.0 4.0 0.00 0.03 0.00 57 1016.2
20260502232106 43 312 0.0 3.0 0.00 0.03 0.00 58 1016.2
20260502231605 44 312 2.0 4.0 0.00 0.03 0.00 56 1016.2
20260502231108 44 315 0.0 6.0 0.00 0.03 0.00 57 1016.2
20260502230605 44 305 6.0 7.0 0.00 0.03 0.00 57 1016.2
20260502230105 44 0 5.0 5.0 0.00 0.03 0.00 56 1016.3
20260502225605 44 281 2.0 4.0 0.00 0.03 0.00 56 1016.2
20260502225106 44 284 0.0 5.0 0.00 0.03 0.00 57 1016.3
20260502224605 44 306 4.0 5.0 0.00 0.03 0.00 56 1016.3
20260502224109 44 328 0.0 6.0 0.00 0.03 0.00 55 1016.3
20260502223606 44 338 4.0 11.0 0.00 0.03 0.00 55 1016.3
20260502223105 44 327 2.0 9.0 0.00 0.03 0.00 54 1016.2
20260502222605 44 5 5.0 7.0 0.00 0.03 0.00 56 1016.1
20260502222105 44 5 1.0 10.0 0.00 0.03 0.00 57 1016.1
20260502221606 44 329 3.0 12.0 0.00 0.03 0.00 55 1016.2
20260502221106 44 5 2.0 7.0 0.00 0.03 0.00 57 1016.2
20260502220605 44 13 3.0 11.0 0.00 0.03 0.00 57 1016.2
20260502220110 44 308 0.0 7.0 0.00 0.03 0.00 57 1016.0
20260502215605 44 9 5.0 12.0 0.00 0.03 0.00 57 1015.9
20260502215105 44 333 2.0 11.0 0.00 0.03 0.00 58 1016.0
20260502214606 45 296 2.0 7.0 0.00 0.03 0.00 57 1015.9
20260502214108 45 301 4.0 10.0 0.00 0.03 0.00 58 1015.9
20260502213605 46 5 3.0 9.0 0.00 0.03 0.00 57 1015.8
20260502213105 45 285 6.0 8.0 0.00 0.03 0.00 56 1015.8
20260502212605 45 251 0.0 11.0 0.00 0.03 0.00 54 1015.9
20260502212106 45 0 6.0 13.0 0.00 0.03 0.00 55 1015.8
20260502211608 45 330 2.0 10.0 0.00 0.03 0.00 52 1015.6
20260502211105 45 303 6.0 10.0 0.00 0.03 0.00 52 1015.6
20260502210609 45 277 4.0 9.0 0.00 0.03 0.00 54 1015.6
20260502210105 45 15 1.0 9.0 0.00 0.03 0.00 52 1015.6
20260502205605 45 300 4.0 10.0 0.00 0.03 0.00 53 1015.6
20260502205108 45 328 0.0 7.0 0.00 0.03 0.00 53 1015.6
20260502204605 45 281 3.0 12.0 0.00 0.03 0.00 53 1015.6
20260502204105 45 269 0.0 11.0 0.00 0.03 0.00 55 1015.5
20260502203605 45 292 1.0 11.0 0.00 0.03 0.00 54 1015.5
20260502203105 45 307 2.0 7.0 0.00 0.03 0.00 54 1015.6
20260502202605 45 12 8.0 9.0 0.00 0.03 0.00 55 1015.5
20260502202106 45 261 4.0 13.0 0.00 0.03 0.00 55 1015.6
20260502201605 45 319 6.0 17.0 0.00 0.03 0.00 54 1015.5
20260502201105 45 297 7.0 10.0 0.00 0.03 0.00 55 1015.6
20260502200606 45 292 5.0 9.0 0.00 0.03 0.00 57 1015.7
20260502200105 45 306 2.0 12.0 0.00 0.03 0.00 58 1015.6
20260502195606 46 269 4.0 7.0 0.00 0.03 0.00 57 1015.5
20260502195109 46 233 0.0 9.0 0.00 0.03 0.00 57 1015.6
20260502194609 46 49 2.0 14.0 0.00 0.03 0.00 57 1015.7
20260502194105 45 55 3.0 7.0 0.00 0.03 0.00 60 1015.7
20260502193606 45 344 0.0 11.0 0.00 0.03 0.00 60 1015.7
20260502193105 45 0 0.0 11.0 0.00 0.03 0.00 60 1015.7
20260502192606 45 63 1.0 14.0 0.00 0.03 0.00 61 1015.8
20260502192106 45 355 6.0 10.0 0.00 0.03 0.00 61 1015.8
20260502191105 46 0 5.0 10.0 0.00 0.03 0.00 61 1015.7
20260502190606 45 292 5.0 13.0 0.00 0.03 0.00 56 1015.8
20260502190105 45 271 3.0 11.0 0.00 0.03 0.00 55 1015.7
20260502185605 45 253 5.0 10.0 0.00 0.03 0.00 55 1015.7
20260502185106 45 342 1.0 7.0 0.00 0.03 0.00 56 1015.7
20260502184605 45 355 4.0 13.0 0.00 0.03 0.00 56 1015.7
20260502184105 45 310 6.0 14.0 0.00 0.03 0.00 56 1015.7
20260502183606 46 295 9.0 10.0 0.00 0.03 0.00 55 1015.7
20260502183105 46 287 3.0 11.0 0.00 0.03 0.00 51 1015.6
20260502182608 46 13 1.0 12.0 0.00 0.03 0.00 49 1015.6
20260502182106 46 349 2.0 10.0 0.00 0.03 0.00 52 1015.7
20260502181608 46 277 1.0 6.0 0.00 0.03 0.00 54 1015.7
20260502181108 46 308 1.0 7.0 0.00 0.03 0.00 55 1015.8
20260502180606 45 302 1.0 13.0 0.00 0.03 0.00 52 1015.8
20260502180105 46 290 2.0 10.0 0.00 0.03 0.00 53 1015.7
20260502170105 44 310 1.0 10.0 0.00 0.03 0.00 54 1015.8
20260502164105 44 307 5.0 9.0 0.00 0.03 0.00 55 1015.9
20260502163606 44 341 4.0 11.0 0.00 0.03 0.00 53 1015.9
20260502163105 45 328 2.0 10.0 0.00 0.03 0.00 54 1016.0
20260502162610 45 226 6.0 11.0 0.00 0.03 0.00 56 1015.9
20260502162105 44 315 2.0 12.0 0.00 0.04 0.00 51 1016.1
20260502161605 45 298 7.0 13.0 0.00 0.04 0.00 52 1016.0
20260502161109 45 298 9.0 15.0 0.00 0.04 0.00 56 1015.9
20260502160606 44 267 3.0 10.0 0.00 0.05 0.00 56 1015.9
20260502160105 44 307 4.0 11.0 0.00 0.06 0.00 59 1016.1
20260502151605 44 293 7.0 18.0 0.00 0.09 0.00 57 1015.8
20260502151109 44 290 2.0 12.0 0.00 0.09 0.00 57 1015.8
20260502150605 44 240 6.0 13.0 0.00 0.10 0.00 59 1015.8
20260502150105 44 252 2.0 12.0 0.00 0.10 0.00 59 1015.6
20260502140108 43 313 4.0 13.0 0.00 0.14 0.00 63 1015.5
20260502130605 40 302 0.0 5.0 0.00 0.17 0.00 70 1015.5
20260502130105 39 319 3.0 5.0 0.00 0.17 0.00 70 1015.6
20260502123609 38 275 3.0 10.0 0.00 0.17 0.00 72 1015.4
20260502123105 38 292 0.0 9.0 0.00 0.17 0.00 71 1015.4
20260502122605 38 311 0.0 8.0 0.00 0.17 0.00 71 1015.4
20260502122111 38 286 4.0 5.0 0.00 0.17 0.00 72 1015.4
20260502121605 38 275 2.0 5.0 0.00 0.17 0.00 73 1015.3
20260502121105 37 274 0.0 9.0 0.00 0.17 0.00 73 1015.2
20260502120605 37 326 4.0 7.0 0.00 0.17 0.00 73 1015.3
20260502120108 37 276 6.0 9.0 0.00 0.17 0.00 74 1015.1
20260502115605 37 309 3.0 7.0 0.00 0.17 0.00 76 1015.1
20260502115108 36 316 0.0 6.0 0.00 0.17 0.00 77 1015.1
20260502114605 36 307 3.0 4.0 0.00 0.17 0.00 80 1015.2
20260502114106 36 311 0.0 6.0 0.00 0.17 0.00 80 1015.1
20260502113605 36 309 0.0 3.0 0.00 0.17 0.00 81 1015.2
20260502113106 35 310 0.0 3.0 0.00 0.17 0.00 82 1015.2
20260502112606 35 309 0.0 2.0 0.00 0.17 0.00 82 1015.3
20260502112105 35 309 0.0 1.0 0.00 0.17 0.00 82 1015.4
20260502111605 35 309 0.0 1.0 0.00 0.17 0.00 82 1015.4
20260502111105 34 309 0.0 2.0 0.00 0.17 0.00 82 1015.4
20260502110606 34 309 0.0 0.0 0.00 0.17 0.00 83 1015.3
20260502110105 34 309 0.0 2.0 0.00 0.17 0.00 82 1015.3
20260502105605 34 309 0.0 4.0 0.00 0.17 0.00 82 1015.2
20260502105105 34 314 0.0 3.0 0.00 0.17 0.00 83 1015.3
20260502104605 34 319 0.0 4.0 0.00 0.17 0.00 83 1015.2
20260502104105 34 271 0.0 5.0 0.00 0.17 0.00 83 1015.2
20260502103606 34 268 1.0 4.0 0.00 0.17 0.00 83 1015.2
20260502103105 34 267 0.0 7.0 0.00 0.17 0.00 84 1015.3
20260502102608 34 269 0.0 6.0 0.00 0.17 0.00 85 1015.3
20260502102108 34 294 0.0 4.0 0.00 0.17 0.00 85 1015.3
20260502101608 34 294 0.0 5.0 0.00 0.17 0.00 86 1015.2
20260502101105 34 291 0.0 3.0 0.00 0.17 0.00 86 1015.2
20260502100610 34 291 0.0 2.0 0.00 0.17 0.00 86 1015.2
20260502100105 34 291 0.0 0.0 0.00 0.17 0.00 86 1015.4
20260502091105 35 291 0.0 0.0 0.00 0.17 0.00 87 1015.5
20260502090605 35 291 0.0 0.0 0.00 0.17 0.00 87 1015.5
20260502090105 35 291 0.0 2.0 0.00 0.17 0.00 88 1015.3
20260502080109 35 290 0.0 0.0 0.01 0.17 0.00 96 1015.2
20260502071106 36 291 0.0 0.0 0.00 0.16 0.00 98 1015.3
20260502070608 37 291 0.0 0.0 0.00 0.16 0.00 98 1015.3
20260502070105 37 291 0.0 4.0 0.00 0.16 0.00 98 1015.2
20260502065605 37 291 0.0 3.0 0.00 0.16 0.00 100 1015.2
20260502065105 37 291 0.0 3.0 0.00 0.16 0.00 98 1015.4
20260502064606 37 291 2.0 4.0 0.00 0.16 0.00 99 1015.4
20260502064108 37 295 0.0 3.0 0.00 0.16 0.00 98 1015.4
20260502063605 37 295 0.0 3.0 0.00 0.16 0.00 98 1015.4
20260502063105 37 303 0.0 3.0 0.00 0.16 0.00 98 1015.4
20260502062605 37 304 1.0 4.0 0.00 0.16 0.00 99 1015.4
20260502062105 37 311 3.0 4.0 0.00 0.16 0.00 98 1015.4
20260502061605 37 11 0.0 0.0 0.00 0.16 0.00 98 1015.5
20260502061105 37 11 0.0 2.0 0.00 0.16 0.00 98 1015.5
20260502060605 37 11 0.0 1.0 0.00 0.16 0.00 98 1015.5
20260502060105 37 11 0.0 0.0 0.00 0.16 0.00 98 1015.8
20260502055605 37 11 0.0 0.0 0.00 0.16 0.00 98 1015.7
20260502055105 37 11 0.0 0.0 0.00 0.16 0.00 98 1015.8
20260502054608 37 11 0.0 0.0 0.00 0.16 0.00 97 1015.8
20260502054105 37 11 0.0 0.0 0.00 0.16 0.00 97 1015.8
20260502053608 38 11 0.0 0.0 0.00 0.16 0.00 97 1015.8
20260502053105 38 11 0.0 0.0 0.00 0.16 0.00 97 1015.8
20260502052605 38 11 0.0 0.0 0.00 0.16 0.00 97 1015.9
20260502052105 38 11 0.0 0.0 0.00 0.16 0.00 97 1015.9
20260502051610 38 11 0.0 0.0 0.00 0.16 0.00 97 1015.8
20260502051105 38 11 0.0 0.0 0.00 0.16 0.00 97 1015.8
20260502050608 38 11 0.0 0.0 0.00 0.16 0.00 97 1015.9